Hourly Weather Almamellék

Today, 8 March, Monday

Time Temperature Precipitation Wind Pressure Humidity
00:00 +2°C° 0 mm 1 mps 749 mmHg 60%
01:00 +2°C° 0 mm 1 mps 748 mmHg 62%
02:00 +2°C° 0 mm 1 mps 748 mmHg 63%
03:00 +1°C° 0 mm 1 mps 748 mmHg 64%
04:00 +1°C° 0 mm 1 mps 748 mmHg 65%
05:00 +1°C° 0 mm 1 mps 748 mmHg 64%
06:00 +1°C° 0 mm 1 mps 748 mmHg 64%
07:00 +1°C° 0 mm 1 mps 748 mmHg 64%
08:00 +3°C° 0 mm 1 mps 748 mmHg 58%
09:00 +4°C° 0 mm 2 mps 749 mmHg 51%
10:00 +6°C° 0 mm 2 mps 749 mmHg 45%
11:00 +7°C° 0 mm 3 mps 749 mmHg 43%
12:00 +8°C° 0 mm 3 mps 749 mmHg 42%
13:00 +8°C° 0 mm 4 mps 749 mmHg 40%
14:00 +8°C° 0 mm 4 mps 749 mmHg 41%
15:00 +8°C° 0 mm 4 mps 749 mmHg 42%
16:00 +7°C° 0 mm 4 mps 748 mmHg 43%
17:00 +7°C° 0 mm 3 mps 749 mmHg 49%
18:00 +6°C° 0 mm 2 mps 749 mmHg 55%
19:00 +4°C° 0 mm 2 mps 749 mmHg 61%
20:00 +4°C° 0 mm 2 mps 750 mmHg 64%
21:00 +3°C° 0 mm 2 mps 750 mmHg 68%
22:00 +3°C° 0 mm 2 mps 751 mmHg 71%
23:00 +2°C° 0 mm 2 mps 751 mmHg 72%

Tomorrow, 9 March, Tuesday

Time Temperature Precipitation Wind Pressure Humidity
00:00 +2°C° 0 mm 2 mps 751 mmHg 72%
01:00 +1°C° 0 mm 2 mps 751 mmHg 72%
02:00 +1°C° 0 mm 2 mps 751 mmHg 74%
03:00 -1°C° 0 mm 2 mps 751 mmHg 75%
04:00 -1°C° 0 mm 2 mps 751 mmHg 77%
05:00 -1°C° 0 mm 2 mps 751 mmHg 75%
06:00 -1°C° 0 mm 2 mps 751 mmHg 73%
07:00 -1°C° 0 mm 2 mps 751 mmHg 71%
08:00 +1°C° 0 mm 2 mps 751 mmHg 62%
09:00 +3°C° 0 mm 2 mps 751 mmHg 54%
10:00 +5°C° 0 mm 2 mps 751 mmHg 46%
11:00 +6°C° 0 mm 2 mps 750 mmHg 44%
12:00 +7°C° 0 mm 2 mps 750 mmHg 41%
13:00 +8°C° 0 mm 2 mps 750 mmHg 39%
14:00 +8°C° 0 mm 2 mps 749 mmHg 40%
15:00 +8°C° 0 mm 2 mps 749 mmHg 40%
16:00 +8°C° 0 mm 3 mps 748 mmHg 41%
17:00 +6°C° 0 mm 2 mps 749 mmHg 46%
18:00 +5°C° 0 mm 2 mps 749 mmHg 52%
19:00 +4°C° 0 mm 2 mps 749 mmHg 57%
20:00 +3°C° 0 mm 2 mps 749 mmHg 57%
21:00 +3°C° 0 mm 2 mps 749 mmHg 57%
22:00 +3°C° 0 mm 2 mps 750 mmHg 57%
23:00 +2°C° 0 mm 2 mps 750 mmHg 58%

Day after tomorrow, 10 March, Wednesday

Time Temperature Precipitation Wind Pressure Humidity
00:00 +3°C° 0 mm 1 mps 750 mmHg 58%
01:00 +3°C° 0 mm 1 mps 750 mmHg 59%
02:00 +2°C° 0 mm 1 mps 750 mmHg 59%
03:00 +2°C° 0 mm 1 mps 750 mmHg 60%
04:00 +1°C° 0 mm 0 mps 750 mmHg 60%
05:00 +1°C° 0 mm 0 mps 750 mmHg 61%
06:00 +1°C° 0 mm 0 mps 750 mmHg 61%
07:00 +1°C° 0 mm 0 mps 750 mmHg 62%
08:00 +4°C° 0 mm 1 mps 751 mmHg 58%
09:00 +5°C° 0 mm 1 mps 751 mmHg 53%
10:00 +6°C° 0 mm 2 mps 751 mmHg 49%
11:00 +7°C° 0 mm 3 mps 751 mmHg 48%
12:00 +8°C° 0 mm 3 mps 751 mmHg 47%
13:00 +7°C° 0 mm 4 mps 751 mmHg 47%
14:00 +7°C° 0 mm 4 mps 751 mmHg 48%
15:00 +7°C° 0 mm 4 mps 751 mmHg 49%
16:00 +7°C° 0 mm 4 mps 751 mmHg 51%
17:00 +7°C° 0 mm 3 mps 751 mmHg 58%
18:00 +4°C° 0 mm 3 mps 751 mmHg 66%
19:00 +3°C° 0 mm 3 mps 752 mmHg 73%
20:00 +4°C° 0 mm 2 mps 752 mmHg 78%
21:00 +3°C° 0 mm 2 mps 753 mmHg 83%
22:00 +3°C° 0 mm 1 mps 753 mmHg 88%
23:00 +3°C° 0 mm 1 mps 753 mmHg 88%

11 March, Thursday

Time Temperature Precipitation Wind Pressure Humidity
00:00 +2°C° 0 mm 0 mps 753 mmHg 87%
01:00 +1°C° 0 mm 0 mps 753 mmHg 87%
02:00 +1°C° 0 mm 0 mps 753 mmHg 87%
03:00 +2°C° 0 mm 1 mps 753 mmHg 87%
04:00 +2°C° 0 mm 1 mps 753 mmHg 86%
05:00 +1°C° 0 mm 2 mps 753 mmHg 85%
06:00 +1°C° 0 mm 2 mps 752 mmHg 84%
07:00 +1°C° 0 mm 2 mps 752 mmHg 83%
08:00 +2°C° 0 mm 3 mps 752 mmHg 74%
09:00 +4°C° 0 mm 3 mps 752 mmHg 66%
10:00 +6°C° 0 mm 4 mps 752 mmHg 58%
11:00 +7°C° 0 mm 4 mps 752 mmHg 53%
12:00 +10°C° 0 mm 4 mps 751 mmHg 48%
13:00 +10°C° 0 mm 5 mps 750 mmHg 43%
14:00 +11°C° 0 mm 4 mps 750 mmHg 44%
15:00 +11°C° 0 mm 4 mps 749 mmHg 45%
16:00 +11°C° 0 mm 4 mps 749 mmHg 47%
17:00 +10°C° 0 mm 4 mps 749 mmHg 50%
18:00 +8°C° 0 mm 4 mps 748 mmHg 53%
19:00 +7°C° 0 mm 4 mps 748 mmHg 56%
20:00 +7°C° 0 mm 5 mps 748 mmHg 56%
21:00 +7°C° 0 mm 5 mps 748 mmHg 56%
22:00 +7°C° 0 mm 5 mps 748 mmHg 56%
23:00 +6°C° 0 mm 5 mps 747 mmHg 59%

12 March, Friday

Time Temperature Precipitation Wind Pressure Humidity
00:00 +6°C° 0 mm 5 mps 747 mmHg 62%
01:00 +6°C° 0 mm 5 mps 747 mmHg 64%
02:00 +6°C° 0 mm 5 mps 747 mmHg 64%
03:00 +6°C° 0 mm 5 mps 747 mmHg 64%
04:00 +6°C° 0 mm 5 mps 747 mmHg 64%
05:00 +6°C° 0 mm 4 mps 747 mmHg 66%
06:00 +6°C° 0 mm 4 mps 748 mmHg 68%
07:00 +7°C° 0 mm 4 mps 748 mmHg 70%
08:00 +7°C° 0 mm 4 mps 748 mmHg 69%
09:00 +8°C° 0 mm 4 mps 749 mmHg 69%
10:00 +10°C° 0 mm 4 mps 749 mmHg 68%
11:00 +10°C° 0.6 mm 3 mps 749 mmHg 73%
12:00 +9°C° 0.6 mm 3 mps 749 mmHg 79%
13:00 +8°C° 0.6 mm 2 mps 749 mmHg 85%
14:00 +8°C° 2 mm 3 mps 748 mmHg 87%
15:00 +8°C° 2 mm 3 mps 748 mmHg 90%
16:00 +8°C° 2 mm 3 mps 748 mmHg 92%
17:00 +6°C° 1.3 mm 4 mps 748 mmHg 92%
18:00 +6°C° 1.3 mm 4 mps 748 mmHg 91%
19:00 +6°C° 1.3 mm 4 mps 748 mmHg 91%
20:00 +7°C° 0.9 mm 3 mps 748 mmHg 92%
21:00 +7°C° 0.9 mm 3 mps 748 mmHg 93%
22:00 +5°C° 0.9 mm 3 mps 748 mmHg 94%
23:00 +5°C° 0.4 mm 3 mps 748 mmHg 94%

13 March, Saturday

Time Temperature Precipitation Wind Pressure Humidity
00:00 +7°C° 0.4 mm 2 mps 748 mmHg 95%
01:00 +7°C° 0.4 mm 2 mps 748 mmHg 95%
02:00 +6°C° 0.1 mm 2 mps 748 mmHg 95%
03:00 +6°C° 0.1 mm 2 mps 747 mmHg 95%
04:00 +6°C° 0.1 mm 2 mps 747 mmHg 96%
05:00 +6°C° 0.6 mm 2 mps 747 mmHg 96%
06:00 +7°C° 0.6 mm 2 mps 747 mmHg 96%
07:00 +7°C° 0.6 mm 2 mps 746 mmHg 97%
08:00 +7°C° 0.5 mm 2 mps 746 mmHg 96%
09:00 +7°C° 0.5 mm 3 mps 746 mmHg 95%
10:00 +8°C° 0.5 mm 3 mps 746 mmHg 94%
11:00 +8°C° 0.4 mm 3 mps 745 mmHg 88%
12:00 +9°C° 0.4 mm 3 mps 745 mmHg 82%
13:00 +10°C° 0.4 mm 3 mps 745 mmHg 76%
14:00 +10°C° 0.4 mm 3 mps 744 mmHg 78%
15:00 +10°C° 0.4 mm 3 mps 743 mmHg 80%
16:00 +10°C° 0.4 mm 4 mps 743 mmHg 82%
17:00 +10°C° 0.5 mm 3 mps 743 mmHg 84%
18:00 +9°C° 0.5 mm 3 mps 743 mmHg 86%
19:00 +9°C° 0.5 mm 3 mps 743 mmHg 88%
20:00 +8°C° 0.5 mm 3 mps 743 mmHg 88%
21:00 +8°C° 0.5 mm 3 mps 743 mmHg 88%
22:00 +8°C° 0.5 mm 3 mps 744 mmHg 89%
23:00 +7°C° 0.2 mm 2 mps 744 mmHg 89%
Show more

We Need Your Consent

Meteoprog and our Service Providers may store and access personal data such as cookies, device identifiers or other similar technologies on your device and process such data to personalise content and ads, as well as provide social media features and to analyse the traffic.

  • Store and/or access information on your device

    Cookies, device identifiers or other information can be stored or accessed on your device for the purposes indicated above.

  • Personalised ads and content, ad and content measurement, audience insights, and products development

    Ads and content can be personalised based on a profile. More data can be added to better personalise ads and content. Ad and content performance can be measured. Insights about the audience who saw the ads and content can be derived. Such data can be used to develop or improve user’s experience, systems and software.

By clicking ‘I Agree’ you will allow the use of indicated cookies, device identifiers, web beacons or other similar technologies. Your settings can be changed in the browser on your device.

For certain purposes, legitimate interests may be relied on, rather than consent. You can read more about this in our Privacy and Cookie Policy.